Flag for U.S.A. Weather past 2 weeks in Clovis, New Mexico, U.S.A.

Now
63 °F

Clear.


Feels Like: 63 °F
Forecast: 48 / 78 °F
Wind: 3 mph from South

Location: Cannon Air Force Base / Clovis

Current Time: May 24, 2015 at 9:55:21 PM

Latest Report: May 24, 2015 at 8:58 PM


Visibility: 10 mi

Pressure: 29.70 "Hg

Humidity: 51%

Dew point: 45 °F

Location of ClovisLocation

Historic Weather in Clovis — Graph

°F

Clovis temperature yesterday

Maximum temperature yesterday: 78 °F (at 3:58 PM)
Minimum temperature yesterday: 52 °F (at 3:58 AM)
Average temperature yesterday: 65 °F

Past Weeks' High & Low Weather Summary

 TemperatureHumidityPressure
High78 °F (May 18, 2:58 PM)100% (May 13, 4:58 AM)30.28 "Hg (May 13, 4:58 AM)
Low41 °F (May 11, 5:58 AM)18% (May 17, 5:58 PM)29.64 "Hg (May 16, 1:58 PM)
Average59 °F68%29.94 "Hg
* Reported May 9 7:58 PM — May 24 7:58 PM, Clovis, Weather by CustomWeather, © 2015

Note: Actual official high and low records may vary slightly from our data, if they occured in-between our weather recording intervals... More about our weather records

Advertising

Clovis weather history for previous 24 hours

 ConditionsComfort  
Time TempWeatherWind HumidityBarometerVisibility
7:58 PM
Sun, May 24
66 °FSunny.7 mph46%29.70 "Hg10 mi
6:58 PM70 °FSunny.7 mph36%29.69 "Hg10 mi
5:58 PM74 °FSunny.14 mph24%29.68 "Hg10 mi
4:58 PM76 °FSunny.10 mph22%29.69 "Hg10 mi
3:58 PM76 °FSunny.16 mph20%29.68 "Hg10 mi
2:58 PM75 °FPassing clouds.16 mph28%29.72 "Hg10 mi
2:00 PM75 °FSunny.15 mph25%29.86 "Hg10 mi
1:58 PM74 °FSunny.15 mph27%29.72 "Hg10 mi
12:58 PM73 °FSunny.8 mph28%29.74 "Hg10 mi
11:58 AM72 °FSunny.14 mph29%29.76 "Hg10 mi
10:58 AM70 °FSunny.10 mph38%29.75 "Hg10 mi
8:58 AM62 °FSunny.13 mph58%29.75 "Hg10 mi
7:58 AM56 °FSunny.10 mph82%29.76 "Hg10 mi
6:58 AM52 °FSunny.5 mph90%29.76 "Hg10 mi
5:58 AM48 °FClear.7 mph96%29.75 "Hg10 mi
4:58 AM50 °FClear.7 mph91%29.74 "Hg10 mi
3:58 AM50 °FClear.3 mph92%29.76 "Hg10 mi
2:58 AM51 °FClear.6 mph91%29.74 "Hg10 mi
1:58 AM54 °FClear.8 mph90%29.74 "Hg10 mi
12:58 AM54 °FClear.7 mph91%29.74 "Hg10 mi
11:58 PM
Sat, May 23
55 °FClear.8 mph89%29.76 "Hg10 mi
10:58 PM56 °FClear.8 mph85%29.77 "Hg10 mi
9:58 PM60 °FClear.10 mph73%29.75 "Hg10 mi
Weather by CustomWeather, © 2015

See weather overviewHow to use our weather pages